星链-1568 (STARLINK-1568 )

导读

STARLINK-1568是美国太空探索技术公司(SpaceX)星链星座的卫星,于北京时间2020年8月7日发射入轨,属于星链计划中批量部署的互联网通信卫星成员,旨在为全球提供低延迟、高速率的卫星互联网服务,进一步拓展星链星座的全球覆盖范围与服务能力,推动低轨卫星通信网络建设。

基本信息
目录编号:
46080
目录名称:
STARLINK-1568
国际标识:
2020-055BF
轨道中心:
EARTH
卫星名称:
星链-1568
卫星全名:
星链-1568 (STARLINK-1568 )
卫星状态:
在轨 (已飞行2136 天)
发射日期:
2020-08-07 UTC
国别 :
美国 (US)
星等 :
--
轨道信息
数据来源 国际轨道数据
星历时间: 2026-06-12T00:07:32+0800
1天前
查看轨道信息
半长轴: 6781.464km
偏心率: 0.0002921
轨道倾角: 53.059°
近地点辐角 68.036°
升交点赤经 301.809°
平近点角 292.096°
近地点: 401.346km
远地点: 405.308km
周期: 92.629分钟
每日圈数: 15.545963
详细信息
固有亮度:
5
最大亮度:
2.5
卫星平台:
Starlink V1.0
覆盖范围:
全球
运营商:
太空探索技术公司
运营商所在国:
美国
制造商(研发单位):
太空探索技术公司
制造商所在国:
美国
使用方式:
暂无
卫星简介
星链(Starlink)计划是由太空探索技术公司(SpaceX)提出的一个巨型低轨卫星互联网星座项目,计划在2019年至2024年间在太空搭建由约1.2万颗卫星组成的“星链”网络,其中1584颗将部署在地球上空550千米处的近地轨道,并从2020年开始工作。该卫星仍在工作。
2D轨道图
3D轨道图
轨道高度分析图
轨道倾角分析图
轨道综合分析图
查看轨道综合分析图